Location: Newark
(45.5000°N, 11.4167°E)
Time: 06:03:28
(UTC+00:00)

Altair - Pass Details

Date: 25 August 2019
Orbit: 1501 x 1683 km, 47.2° (Epoch: 14 September)

Event Time Altitude Azimuth Distance (km) Brightness Sun altitude
Exits shadow 02:06:37 33° 226° (SW) 2,481 8.0 -21.9°
Maximum altitude 02:11:39 71° 153° (SSE) 1,678 7.6 -21.2°
Drops below altitude 10° 02:21:05 10° 72° (ENE) 3,742 10.5 -20.0°
Sets 02:24:06 0° 70° (ENE) 4,705 11.3 -19.6°
